Погода в Алупке

Россия / Республика Крым     44°25′16″N   34°03′12″E
темп.,
°C
ветер,
м/с
пор.,
м/с
влажн.,
%
обл.,
%
осадки,
мм/ч
давл.,
гПа
погр.,
м
2 июля, сб
сб200:00+18с22680 0.0 101621
03:00+17с33730 0.0 101640
06:00+17ссв32630 0.0 101630
09:00+23ссв23390 0.0 10161278
12:00+24вюв13450 0.0 10171537
15:00+22вюв135335 0.1 10181231
18:00+21зсз02490 0.1 1018820
21:00+15с12630 0.1 101920
3 июля, вс
вс300:00+15ссв22440 0.0 102019
03:00+14с22440 0.0 102023
06:00+14с22510 0.0 101926
09:00+20св12360 0.0 10191038
12:00+22ююв23420 0.0 10191240
15:00+22ююв12460 0.0 10181107
18:00+21зсз13523 0.0 1018857
21:00+16ссв117661 0.0 101912
4 июля, пн
пн400:00+15с22640 0.0 101919
03:00+15с22610 0.0 101826
06:00+16с22610 0.0 101822
09:00+22в12430 0.0 1018942
12:00+24ююв123993 0.0 10171459
15:00+25ююв22393 0.0 10171446
18:00+23з124515 0.0 1016961
21:00+18зсз11660 0.0 101711
5 июля, вт
вт500:00+18ссв22640 0.0 101718
03:00+18ссв22570 0.0 101727
06:00+18с22560 0.0 101726
09:00+25ссв14430 0.0 10161282
12:00+27юв243636 0.0 10162240
15:00+27вюв233785 0.0 10151884
18:00+25в34500 0.0 1016872
21:00+20св22690 0.0 101621
6 июля, ср
ср600:00+19с22650 0.0 101626
03:00+18ссв34520 0.0 101642
06:00+18св34500 0.0 101645
09:00+24всв47350 0.0 10151314
12:00+26всв58310 0.0 10151569
15:00+26в57310 0.0 10151371
18:00+25всв46320 0.0 10141054
21:00+19ссв34500 0.0 101542